Lexington Weather

Lexington, Massachusetts, USA

34°F
4/16/2021 10:37am 
  • Lexington Conditions: Snow, Fog, Overcast
  • Temperature: 34.0°F / 1.1°C 
  • Dew Point: 32.7°F 
  • Relative Humidity: 95
  • Wind: Calm, 10-min avg: Calm, gust: None
  • Barometer: 29.48 in Steady
  • Visibility: ½ mile
  • Snow Today: 1.3 in
  •   

Regional Weather Roundup
for Boston / Norton, MA

        
000
ASUS41 KBOX 110804
RWRBOX

REGIONAL WEATHER ROUNDUP
NATIONAL WEATHER SERVICE BOSTON/NORTON MA
400 AM EDT SUN APR 11 2021

NOTE:  "FAIR" INDICATES FEW OR NO CLOUDS BELOW 12,000 FEET WITH NO 
SIGNIFICANT WEATHER AND/OR OBSTRUCTIONS TO VISIBILITY.

MAZALL-110900-
EASTERN MASSACHUSETTS
  
CITY           SKY/WX    TMP DP  RH WIND       PRES   REMARKS
BOSTON         PTCLDY    49  45  86 NE15      29.72R                  
BEVERLY        NOT AVBL                                               
LAWRENCE       MOCLDY    50  46  86 NE12      29.74R                  
BEDFORD        PTCLDY    52  49  89 NE10      29.69R                  
BLUE HILL        N/A     53  51  93 SW10      29.68F                  
NORWOOD        PTCLDY    52  48  86 CALM      29.69F                  
MARSHFIELD     PTCLDY    55  54  94 W3G12     29.69S                  
PLYMOUTH       PTCLDY    51  49  92 SW7       29.69F                  
TAUNTON        CLOUDY    53  51  93 CALM      29.70F FOG              
NEW BEDFORD    FOG       52  52 100 SW7       29.70F VSB 3/4          
$$

MAZALL-110900-
CAPE COD AND THE ISLANDS
  
CITY           SKY/WX    TMP DP  RH WIND       PRES   REMARKS
FALMOUTH       FOG       50  50 100 SW14      29.71F VSB 1            
HYANNIS        CLOUDY    53  51  93 SW7       29.69F FOG              
CHATHAM        CLOUDY    50  49  96 SW10      29.72F FOG              
PROVINCETOWN   FOG       47  46  97 MISG        N/A  VSB 1/2          
NANTUCKET      FOG       48  48 100 SW9       29.72F VSB 1/2          
MARTHAS VNYRD  CLOUDY    52  51  97 W6        29.72F FOG              
$$
 
MAZALL-110900-
CENTRAL AND WESTERN MASSACHUSETTS
  
CITY           SKY/WX    TMP DP  RH WIND       PRES   REMARKS
WORCESTER      MOCLDY    56  51  84 W10       29.70F                  
FITCHBURG      MOCLDY    56  53  90 NW5       29.69F                  
ORANGE         MOCLDY    48  47  96 CALM      29.71F                  
SPRINGFIELD    MOCLDY    52  51  99 SW3       29.70S                  
WESTFIELD      MOCLDY    51  51 100 S3        29.71S                  
NORTH ADAMS    MOCLDY    49  46  90 SW3       29.70F                  
PITTSFIELD     MOCLDY    50  48  93 CALM      29.70S                  
$$
 
RIZALL-110900-
RHODE ISLAND
  
CITY           SKY/WX    TMP DP  RH WIND       PRES   REMARKS
PROVIDENCE     CLOUDY    56  54  93 SW7       29.71F                  
NEWPORT        FOG       51  51 100 W3        29.72F VSB 1/4          
BLOCK ISLAND   LGT RAIN  49  49 100 W5        29.74S VSB 1/4          
SMITHFIELD     MOCLDY    52  52 100 SW5       29.71F                  
WESTERLY       FOG       50  50 100 W5        29.72F VSB 1/2          
$$
 
CTZALL-110900-
CONNECTICUT
  
CITY           SKY/WX    TMP DP  RH WIND       PRES   REMARKS
BRADLEY INTL   CLOUDY    53  50  89 S7        29.71F                  
HARTFORD       CLOUDY    54  51  90 S5        29.72F                  
BRIDGEPORT     FOG       54  54 100 CALM      29.71F VSB 1/4          
DANBURY        FOG       53  50  89 CALM      29.72F VSB 1/4          
GROTON         FOG       53  53 100 W7        29.72F VSB 1            
NEW HAVEN      FOG       53  53 100 CALM      29.71F VSB 1/4          
CHESTER        FOG       54  54 100 W6        29.72F VSB<1/4          
MERIDEN        FOG       53  51  93 S3        29.71F VSB 1/2          
WILLIMANTIC    CLOUDY    50  48  93 CALM      29.72F                  
OXFORD         FOG       52  52 100 CALM      29.72F VSB 1/4          
$$

MEZ002-015-021-024-NHZ003-005-008-011-012-014-VTZ005-008-110900-
NORTHERN NEW ENGLAND
  
CITY           SKY/WX    TMP DP  RH WIND       PRES   REMARKS
PORTLAND ME    PTCLDY    45  39  79 NE9       29.79S                  
BANGOR ME      CLOUDY    42  34  73 E9        29.83S                  
CONCORD NH     CLEAR     51  46  83 NE8       29.73R                  
MANCHESTER NH  PTCLDY    52  47  83 NE14      29.71R                  
NASHUA NH      PTCLDY    55  55 100 E7        29.72R                  
PORTSMOUTH NH  CLOUDY    48  46  93 NE10      29.76S                  
JAFFREY NH     PTCLDY    47  46  97 CALM      29.71F                  
KEENE NH       MOCLDY    48  48 100 CALM      29.71S FOG              
BURLINGTON VT  PTCLDY    52  45  77 E3        29.68S                  
MT. WASHINGTON PTCLDY    39  36  87 NW22        N/A  WCI  29          
$$

NYZ052-076-110900-
EASTERN NEW YORK
  
CITY           SKY/WX    TMP DP  RH WIND       PRES   REMARKS
ALBANY         CLOUDY    57  52  83 SE5       29.69S                  
NEW YORK CITY  FOG       54  52  93 NE3       29.70F VSB 1/4          
$$
 
ANZALL-110900-
MARINE OBSERVATIONS
  
STATION/POSITION TIME  TEMP    WIND        PRES    VSBY  WAVE
                       AIR SEA DIR/SP/G                  HT/PER
                 (UTC) (F)     (DEG/KT/KT) (MB)    (MI)  (FT/S)
BOSTON BUOY      0740   45 45   20/ 14/ 17 1006.9R
BUZZARDS BAY     0700          240/  9/ 10 1007.9F
NANTUCKET SOUND  0740      46                N/A
MASS BAY-STELLWA 0704   46     360/ 16/ 17 1005.2R   3/4   3/11
ISLE OF SHOALS   0700   45      30/ 27/ 29 1006.1R
S OF BLOCK IS    0726      46                N/A           3/11
$$

......................KEY.........................
  SKY/WX - SKY CONDITION/PRESENT WEATHER
  TMP    - TEMPERATURE IN FAHRENHEIT
  DWPT   - DEWPOINT IN FAHRENHEIT
  RH     - RELATIVE HUMIDITY IN PERCENT
  WIND   - DIRECTION AND SPEED IN MPH
  PRES   - MEAN SEA LEVEL PRESSURE IN INCHES OF HG
  WCI    - WIND CHILL INDEX
  VSB    - VISIBILITY IN MILES
  HX     - HEAT INDEX
  TC     - TEMPERATURE IN CELSIUS
  VRB    - VARIABLE WIND DIRECTION
  N/A    - NOT AVAILABLE
  
      

Other recent Regional Weather Roundups

Fri Apr 16, 10:05am

Fri Apr 16, 9:04am

Fri Apr 16, 8:04am

Fri Apr 16, 7:04am

Fri Apr 16, 6:04am

Fri Apr 16, 5:04am

Fri Apr 16, 4:04am

Fri Apr 16, 3:04am

Fri Apr 16, 2:04am

Fri Apr 16, 1:04am

Fri Apr 16, 12:04am

Thu Apr 15, 11:05pm

Thu Apr 15, 10:04pm

Thu Apr 15, 9:04pm

Thu Apr 15, 8:04pm

Thu Apr 15, 7:05pm

Thu Apr 15, 6:04pm

Thu Apr 15, 5:05pm

Thu Apr 15, 4:04pm

Thu Apr 15, 3:05pm

Thu Apr 15, 2:04pm

Thu Apr 15, 1:05pm

Thu Apr 15, 12:04pm

Thu Apr 15, 11:04am

Thu Apr 15, 10:05am

Thu Apr 15, 9:04am

Thu Apr 15, 8:04am

Thu Apr 15, 7:04am

Thu Apr 15, 6:04am

Thu Apr 15, 5:04am

Thu Apr 15, 4:04am

Thu Apr 15, 3:04am

Thu Apr 15, 2:04am

Thu Apr 15, 1:04am

Thu Apr 15, 12:04am

Wed Apr 14, 11:04pm

Wed Apr 14, 10:04pm

Wed Apr 14, 9:04pm

Wed Apr 14, 8:04pm

Wed Apr 14, 7:04pm

Wed Apr 14, 6:04pm

Wed Apr 14, 5:05pm

Wed Apr 14, 4:04pm

Wed Apr 14, 3:05pm

Wed Apr 14, 2:04pm

Wed Apr 14, 1:05pm

Wed Apr 14, 12:04pm

Wed Apr 14, 11:04am

Wed Apr 14, 10:04am

Wed Apr 14, 9:04am

Wed Apr 14, 8:04am

Wed Apr 14, 7:04am

Wed Apr 14, 6:04am

Wed Apr 14, 5:04am

Wed Apr 14, 4:04am

Wed Apr 14, 3:04am

Wed Apr 14, 2:04am

Wed Apr 14, 1:04am

Wed Apr 14, 12:04am

Tue Apr 13, 11:04pm

Tue Apr 13, 10:05pm

Tue Apr 13, 9:05pm

Tue Apr 13, 8:05pm

Tue Apr 13, 7:04pm

Tue Apr 13, 6:04pm

Tue Apr 13, 5:05pm

Tue Apr 13, 4:04pm

Tue Apr 13, 3:04pm

Tue Apr 13, 2:05pm

Tue Apr 13, 1:04pm

Tue Apr 13, 12:05pm

Tue Apr 13, 11:05am

Tue Apr 13, 10:04am

Tue Apr 13, 9:04am

Tue Apr 13, 8:04am

Tue Apr 13, 7:04am

Tue Apr 13, 6:04am

Tue Apr 13, 5:04am

Tue Apr 13, 4:04am

Tue Apr 13, 3:04am

Tue Apr 13, 2:04am

Tue Apr 13, 1:04am

Tue Apr 13, 12:05am

Mon Apr 12, 11:04pm

Mon Apr 12, 10:04pm

Mon Apr 12, 9:04pm

Mon Apr 12, 8:04pm

Mon Apr 12, 7:05pm

Mon Apr 12, 6:04pm

Mon Apr 12, 5:04pm

Mon Apr 12, 4:04pm

Mon Apr 12, 3:05pm

Mon Apr 12, 2:04pm

Mon Apr 12, 1:05pm

Mon Apr 12, 12:04pm

Mon Apr 12, 11:04am

Mon Apr 12, 10:04am

Mon Apr 12, 9:04am

Mon Apr 12, 8:04am

Mon Apr 12, 7:04am

Mon Apr 12, 6:04am

Mon Apr 12, 5:04am

Mon Apr 12, 4:04am

Mon Apr 12, 3:04am

Mon Apr 12, 2:04am

Mon Apr 12, 1:05am

Mon Apr 12, 12:04am

Sun Apr 11, 11:04pm

Sun Apr 11, 10:04pm

Sun Apr 11, 9:04pm

Sun Apr 11, 8:04pm

Sun Apr 11, 7:04pm

Sun Apr 11, 6:05pm

Sun Apr 11, 5:05pm

Sun Apr 11, 4:04pm

Sun Apr 11, 3:05pm

Sun Apr 11, 2:05pm

Sun Apr 11, 1:05pm

Sun Apr 11, 12:04pm

Sun Apr 11, 11:05am

Sun Apr 11, 10:05am

Sun Apr 11, 9:04am

Sun Apr 11, 8:04am

Sun Apr 11, 7:04am

Sun Apr 11, 6:04am

Sun Apr 11, 5:04am

Sun Apr 11, 3:04am

Sun Apr 11, 2:04am

Sun Apr 11, 1:05am

Sun Apr 11, 12:04am

Sat Apr 10, 11:05pm

Sat Apr 10, 10:04pm

Sat Apr 10, 9:04pm

Sat Apr 10, 8:04pm

Sat Apr 10, 7:05pm

Sat Apr 10, 6:04pm

Sat Apr 10, 5:04pm

Sat Apr 10, 4:04pm

Sat Apr 10, 3:04pm

Sat Apr 10, 2:05pm

Sat Apr 10, 1:04pm

Sat Apr 10, 12:04pm

Sat Apr 10, 11:04am

Sat Apr 10, 10:04am

Sat Apr 10, 9:04am

Sat Apr 10, 8:04am

Sat Apr 10, 7:04am

Sat Apr 10, 6:04am

Sat Apr 10, 5:04am

Sat Apr 10, 4:04am

Sat Apr 10, 3:04am

Sat Apr 10, 2:04am

Sat Apr 10, 1:05am

Sat Apr 10, 12:04am

Fri Apr 9, 11:04pm

Fri Apr 9, 10:05pm

Fri Apr 9, 9:04pm

Fri Apr 9, 8:05pm

Fri Apr 9, 7:05pm

Fri Apr 9, 6:04pm

Fri Apr 9, 5:04pm

Fri Apr 9, 4:05pm

Fri Apr 9, 3:05pm

Fri Apr 9, 2:04pm

Fri Apr 9, 1:04pm

Fri Apr 9, 12:04pm

Fri Apr 9, 11:05am

Meta data:

ID: 5149a39c-9c5f-4f7a-ac76-3afd66aa82c1
Link: https://api.weather.gov/products/5149a39c-9c5f-4f7a-ac76-3afd66aa82c1